This is the latest recevied weather packets stored in our database for station/object DG5TS-10. If no packets are shown the sender has not sent any weather packets the latest 10 day(s).
| Time | Temp. | Humidity | Pressure | Rain* | Wind** | Luminosity | Snow |
|---|---|---|---|---|---|---|---|
| 1777697695 | 16.67° C | 31% | 1022.8 hPa | - | - | - | - |
| 1777696795 | 15.56° C | 32% | 1023 hPa | - | - | - | - |
| 1777695894 | 15° C | 33% | 1023 hPa | - | - | - | - |
| 1777694994 | 15° C | 32% | 1023 hPa | - | - | - | - |
| 1777694094 | 15° C | 33% | 1023 hPa | - | - | - | - |
| 1777693194 | 15° C | 33% | 1023.1 hPa | - | - | - | - |
| 1777692294 | 15° C | 33% | 1023.1 hPa | - | - | - | - |
| 1777691394 | 15.56° C | 32% | 1023.4 hPa | - | - | - | - |
| 1777690494 | 16.11° C | 32% | 1023.4 hPa | - | - | - | - |
| 1777689594 | 16.11° C | 31% | 1023.4 hPa | - | - | - | - |
| 1777688694 | 16.67° C | 31% | 1023.6 hPa | - | - | - | - |
| 1777687794 | 16.67° C | 31% | 1023.7 hPa | - | - | - | - |
| 1777686893 | 17.22° C | 31% | 1023.8 hPa | - | - | - | - |
| 1777685993 | 17.22° C | 31% | 1023.9 hPa | - | - | - | - |
| 1777685093 | 17.78° C | 31% | 1023.9 hPa | - | - | - | - |
| 1777684193 | 17.78° C | 31% | 1024 hPa | - | - | - | - |
| 1777683292 | 17.78° C | 32% | 1024.2 hPa | - | - | - | - |
| 1777682392 | 18.33° C | 31% | 1024.2 hPa | - | - | - | - |
| 1777681492 | 18.33° C | 31% | 1024.3 hPa | - | - | - | - |
| 1777680592 | 18.89° C | 31% | 1024.4 hPa | - | - | - | - |
| 1777679691 | 18.89° C | 30% | 1024.6 hPa | - | - | - | - |
| 1777678791 | 18.89° C | 30% | 1024.9 hPa | - | - | - | - |
| 1777677891 | 19.44° C | 30% | 1025 hPa | - | - | - | - |
| 1777676991 | 20° C | 29% | 1024.9 hPa | - | - | - | - |
| 1777676091 | 20° C | 29% | 1024.9 hPa | - | - | - | - |
* Rain since midnight (hover to see other rain measurements)
** Current wind speed in m/s (hover to see current wind gust speed)